This demonstration page uses our WeatherBlox Daily Observations layout. Learn more.

Left ArrowRight Arrow

38.88101, -77.10428

Hourly Observations for October 18, 2022

Temp ( °F °C ) Dew Point ( °F °C ) Humidity (%) Winds ( mph kmh ) Pressure ( in mb ) Visibility ( mi km ) Precip ( " mm )
12:52 am 00:52 Cloudy 53 11.7 30 -1.1 41 41 NW 17 28 29.70 1006 10 16 0.00 0.00
1:52 am 01:52 Cloudy 52 11.1 29 -1.7 41 41 NW 13 20 29.71 1006 10 16 0.00 0.00
2:52 am 02:52 Cloudy 52 11.1 27 -2.8 38 38 WNW 7 11 29.71 1006 10 16 0.00 0.00
3:52 am 03:52 Cloudy 50 10 26 -3.3 39 39 NW 14 22 29.71 1006 10 16 0.00 0.00
4:52 am 04:52 Mostly Cloudy 48 8.9 23 -5 37 37 NW 10 17 29.72 1006 10 16 0.00 0.00
5:52 am 05:52 Mostly Clear 46 7.8 25 -3.9 43 43 WNW 10 17 29.72 1007 10 16 0.00 0.00
6:52 am 06:52 Mostly Clear 45 7.2 25 -3.9 45 45 WNW 7 11 29.73 1007 10 16 0.00 0.00
7:52 am 07:52 Mostly Sunny 46 7.8 25 -3.9 43 43 WNW 7 11 29.73 1007 10 16 0.00 0.00
8:52 am 08:52 Mostly Sunny 48 8.9 26 -3.3 42 42 W 13 20 29.75 1008 10 16 0.00 0.00
9:52 am 09:52 Mostly Sunny 50 10 28 -2.2 42 42 WNW 13 20 29.76 1008 10 16 0.00 0.00
10:52 am 10:52 Mostly Sunny 51 10.6 29 -1.7 42 42 W 9 15 29.77 1008 10 16 0.00 0.00
11:52 am 11:52 Mostly Sunny 54 12.2 31 -0.6 41 41 NW 12 19 29.77 1008 10 16 0.00 0.00
12:52 pm 12:52 Partly Cloudy 55 12.8 31 -0.6 40 40 WNW 10 17 29.77 1008 10 16 0.00 0.00
1:52 pm 13:52 Mostly Cloudy 54 12.2 31 -0.6 41 41 W 16 26 29.75 1007 10 16 0.00 0.00
2:52 pm 14:52 Mostly Cloudy 54 12.2 30 -1.1 40 40 W 13 20 29.74 1007 10 16 0.00 0.00
3:52 pm 15:52 Mostly Cloudy 54 12.2 29 -1.7 38 38 WNW 14 22 29.76 1008 10 16 0.00 0.00
4:52 pm 16:52 Partly Cloudy 54 12.2 29 -1.7 38 38 WNW 9 15 29.77 1008 10 16 0.00 0.00
5:52 pm 17:52 Partly Cloudy 53 11.7 29 -1.7 39 39 NW 12 19 29.79 1009 10 16 0.00 0.00
6:52 pm 18:52 Mostly Clear 50 10 28 -2.2 42 42 NW 14 22 29.81 1010 10 16 0.00 0.00
7:52 pm 19:52 Mostly Clear 49 9.4 28 -2.2 44 44 NNW 13 20 29.83 1010 10 16 0.00 0.00
8:52 pm 20:52 Mostly Clear 48 8.9 28 -2.2 46 46 WNW 10 17 29.85 1011 10 16 0.00 0.00
9:52 pm 21:52 Mostly Clear 47 8.3 29 -1.7 49 49 W 12 19 29.85 1011 10 16 0.00 0.00
10:52 pm 22:52 Mostly Clear 46 7.8 29 -1.7 51 51 W 8 13 29.85 1011 10 16 0.00 0.00
11:52 pm 23:52 Mostly Clear 44 6.7 30 -1.1 57 57 SW 5 7 29.85 1011 10 16 0.00 0.00

Powered by AerisWeather